SCP
0 0 0 0 0 0 0 0 0 0 0 0 0 0 0 0 0 0 0 0 0 0 0 0 0 0 0 0 0 1 1 1 1 1 0 0 0 0 0 0 0 1 1
0 0 0 0 0 0 0 0 0 0 0 0 0 0 0 0 0 0 0 0 0 0 0 0 0 0 1 1 1 1 1 1 1 1 1 1 0 0 0 0 0 1 1
0 0 0 0 0 0 0 0 0 0 0 0 0 0 0 0 0 0 0 0 0 0 0 0 0 0 0 1 1 1 1 1 1 1 1 1 1 1 1 1 1 1 1
0 0 0 0 0 0 0 0 0 0 0 0 0 0 0 0 0 0 0 0 0 0 0 0 0 0 0 0 1 1 1 1 1 1 1 1 1 1 1 1 1 1 1
0 0 0 0 0 0 0 0 0 0 0 0 0 0 0 0 0 0 0 0 0 0 0 0 0 0 0 0 0 0 0 1 1 1 1 1 1 1 1 1 1 1 1
0 0 0 0 0 0 0 0 0 0 0 0 0 0 0 0 0 0 0 0 0 0 0 0 0 0 0 0 0 0 0 0 1 1 0 1 1 1 1 1 1 1 1
0 0 0 0 0 0 0 0 0 0 0 0 0 0 0 0 0 0 0 0 0 0 0 0 0 0 0 0 0 0 0 0 1 1 1 1 1 1 1 1 1 1 1
0 0 0 0 0 0 0 0 0 0 0 0 0 0 0 0 0 0 0 0 0 0 0 0 0 0 0 0 0 0 0 0 0 1 1 1 1 1 1 1 1 1 1
0 0 0 0 0 0 0 0 0 0 0 0 0 0 0 0 0 0 0 0 0 0 0 0 0 0 0 0 0 0 0 0 0 0 0 1 1 1 1 1 1 1 1
0 0 0 0 0 0 0 0 0 0 0 0 0 0 0 0 0 0 0 0 0 0 0 0 0 0 0 0 0 0 0 0 0 0 0 0 1 1 1 1 1 1 1
0 0 0 0 0 0 0 0 0 0 0 0 0 0 0 0 0 0 0 0 0 0 0 0 0 0 0 0 0 0 0 0 0 0 0 0 0 0 1 1 1 1 1
0 0 0 0 0 0 0 0 0 0 0 0 0 0 0 0 0 0 0 0 0 0 0 0 0 0 0 0 0 0 0 0 0 0 0 0 0 0 0 0 1 1 1
0 0 0 0 0 0 0 0 0 0 0 0 0 0 0 0 0 0 0 0 0 0 0 0 0 0 0 0 0 0 0 0 0 0 0 0 0 0 0 0 0 0 1
0 0 0 0 0 0 0 0 0 0 0 0 0 0 0 0 0 0 0 0 0 0 0 0 0 0 0 0 0 0 0 0 0 0 0 0 0 0 0 0 0 0 0
0 0 0 0 0 0 0 0 0 0 0 0 0 0 0 0 0 0 0 0 0 0 0 0 0 0 0 0 0 0 0 0 0 0 0 0 0 0 0 0 0 0 0
0 0 0 0 0 0 0 0 0 0 0 0 0 0 0 0 0 0 0 0 0 0 0 0 0 0 0 0 0 0 0 0 0 0 0 0 0 0 0 0 0 0 0
0 0 0 0 0 0 0 0 0 0 0 0 0 0 0 0 0 0 0 0 0 0 0 0 0 0 0 0 0 0 0 0 0 0 0 0 0 0 0 0 0 0 0
0 0 0 0 0 0 0 0 0 0 0 0 0 0 0 0 0 0 0 0 0 0 0 0 0 0 0 0 0 0 0 0 0 0 0 0 0 0 0 0 0 0 0
0 0 0 0 0 0 0 0 0 0 0 0 0 0 0 0 0 0 0 0 0 0 0 0 0 0 0 0 0 0 0 0 0 0 0 0 0 0 0 0 0 0 0
0 0 0 0 0 0 0 0 0 0 0 0 0 0 0 0 0 0 0 0 0 0 0 0 0 0 0 0 0 0 0 0 0 0 0 0 0 0 0 0 0 0 0
0 0 0 0 0 0 0 0 0 0 0 0 0 0 0 0 0 0 0 0 0 0 0 0 0 0 0 0 0 0 0 0 0 0 0 0 0 0 0 0 0 0 0
0 0 0 0 0 0 0 0 0 0 0 0 0 0 0 0 0 0 0 0 0 0 0 0 0 0 0 0 0 0 0 0 0 0 0 0 0 0 0 0 0 0 0
0 0 0 0 0 0 0 0 0 0 0 0 0 0 0 0 0 0 0 0 0 0 0 0 0 0 0 0 0 0 0 0 0 0 0 0 0 0 0 0 0 0 0
0 0 0 0 0 0 0 0 0 0 0 0 0 0 0 0 0 0 0 0 0 0 0 0 0 0 0 0 0 0 0 0 0 0 0 0 0 0 0 0 0 0 0
0 0 0 0 0 0 0 0 0 0 0 0 0 0 0 0 0 0 0 0 0 0 0 0 0 0 0 0 0 0 0 0 0 0 0 0 0 0 0 0 0 0 0
0 0 0 0 0 0 0 0 0 0 0 0 0 0 0 0 0 0 0 0 0 0 0 0 0 0 0 0 0 0 0 0 0 0 0 0 0 0 0 0 0 0 0
Wind_Speed
2 2 2 2 2 2 2 2 2 3 3 3 3 3 3 2 2 2 3 6 7 8 8 8 8 8 8 8 8 8 8 7 7 7 8 9 9 10 10 11 11 11 11
2 2 2 2 2 2 2 1 2 2 2 2 3 3 3 2 2 2 2 4 7 8 8 8 8 9 9 9 9 9 9 9 9 9 9 10 10 11 11 12 12 12 12
2 2 2 2 2 2 2 1 2 2 2 2 3 3 2 2 2 2 3 2 4 7 9 9 9 10 10 10 10 10 10 10 10 10 10 11 11 11 12 12 13 13 13
3 2 2 2 3 2 2 2 2 2 2 2 2 2 2 2 2 2 2 3 3 3 6 9 10 10 11 11 11 11 11 11 11 11 11 12 12 12 12 13 13 13 13
4 2 2 2 3 2 2 2 2 2 2 3 3 2 2 2 2 2 2 2 3 3 3 7 9 10 11 11 12 12 12 12 12 12 12 12 13 13 13 14 14 14 14
4 3 2 3 3 2 2 2 2 2 2 3 3 3 2 2 1 1 2 2 3 3 3 4 4 7 11 11 12 12 12 12 12 12 12 13 13 14 14 15 15 15 15
4 3 3 3 3 2 3 3 2 2 2 2 2 3 2 1 1 1 1 2 3 3 4 4 4 4 5 10 11 12 13 13 13 13 13 13 14 14 15 15 16 16 16
4 3 3 3 3 2 3 3 3 1 2 2 1 2 3 3 2 2 1 1 2 3 4 4 4 4 4 3 7 12 13 14 14 14 15 15 15 15 16 16 16 16 16
4 4 3 3 3 2 2 2 2 2 2 1 1 1 1 3 4 2 1 1 2 2 2 2 3 4 4 3 4 9 13 14 14 15 15 16 16 17 17 17 18 18 17
3 3 4 3 3 2 2 2 2 2 1 2 2 1 1 1 2 4 2 1 2 3 2 3 3 3 4 3 6 10 13 13 14 15 16 16 17 17 17 18 18 18 18
3 4 4 3 3 3 3 3 2 2 1 1 1 2 2 2 1 3 5 4 3 2 2 2 2 2 3 3 4 8 13 13 14 15 15 16 17 17 18 18 19 19 19
3 4 4 3 3 3 3 3 2 2 1 1 1 1 1 1 2 2 4 5 5 3 3 2 2 2 3 3 5 11 12 13 14 15 15 16 17 18 18 19 19 19 20
3 4 4 4 3 3 3 3 3 3 2 2 2 2 2 2 2 2 4 5 5 4 2 1 1 2 3 3 5 11 11 13 14 15 15 16 17 18 18 19 19 19 19
2 3 3 4 4 4 4 3 2 3 3 2 2 2 2 2 2 2 3 4 5 4 3 3 2 1 2 3 6 11 7 13 14 15 15 16 16 17 18 18 19 19 19
3 3 3 3 4 4 4 4 3 3 3 3 2 2 2 2 2 2 3 3 4 6 6 3 2 2 3 3 7 5 6 11 14 14 15 15 16 17 18 18 19 19 19
3 3 3 4 4 4 4 4 4 4 4 4 3 3 3 3 2 2 2 3 3 5 7 4 4 5 5 5 9 6 6 12 13 14 15 16 16 17 18 18 19 19 19
3 3 3 4 4 4 4 4 4 4 4 4 4 4 4 4 3 3 3 3 3 4 7 7 4 4 5 6 7 6 6 6 7 13 15 15 16 16 17 18 18 19 19
3 3 3 4 4 4 4 4 4 4 4 5 5 4 5 4 4 3 3 4 4 4 5 9 7 5 6 6 7 7 7 6 6 12 15 16 16 16 17 18 19 19 19
3 3 3 4 4 4 4 4 4 4 4 4 4 4 5 5 5 4 4 4 4 5 4 6 8 6 5 5 7 7 7 6 7 10 14 14 15 17 17 18 18 18 18
3 4 4 3 4 4 4 4 4 5 4 4 5 5 5 5 5 5 5 5 5 5 5 5 6 6 6 6 6 7 8 6 7 8 9 11 14 16 17 17 17 18 17
4 4 4 4 4 4 4 5 4 4 4 4 5 5 5 7 8 7 6 5 5 5 5 6 6 7 7 7 7 7 9 8 7 5 6 7 7 7 8 13 15 17 17
4 4 4 4 4 4 7 8 6 3 4 4 5 5 5 5 8 10 10 10 9 7 7 6 6 7 9 8 8 8 8 9 8 4 6 8 6 7 6 6 14 18 16
3 4 4 4 4 6 8 8 9 5 4 4 4 5 5 5 6 6 8 10 9 10 10 7 7 8 9 9 10 10 9 9 9 7 7 9 6 7 6 9 17 16 16
3 3 4 4 4 5 8 9 9 5 3 4 4 5 5 6 7 8 6 7 7 7 8 6 5 7 7 8 8 9 9 9 9 6 5 7 6 7 8 7 13 15 16
3 3 3 3 4 6 8 9 9 3 3 4 4 4 5 6 10 12 8 7 8 7 9 12 13 12 14 14 12 7 7 7 8 7 4 5 6 8 8 6 8 14 16
2 3 3 3 4 5 8 9 9 3 4 4 4 5 6 9 12 12 7 6 8 8 8 9 9 10 9 10 12 7 6 6 7 6 4 5 6 6 8 5 6 7 9
Wind_Direction
17 7 1 1 356 0 2 353 347 343 343 343 346 347 335 330 330 338 341 355 356 352 346 344 345 342 341 338 336 334 331 331 335 336 332 328 325 324 323 321 316 311 307
17 7 356 351 350 347 339 328 319 324 324 332 336 333 326 329 345 351 349 350 355 351 346 346 347 344 341 340 340 343 342 341 340 337 333 328 324 321 320 318 316 314 312
15 9 0 351 342 333 329 330 333 341 341 340 328 325 330 332 343 351 349 352 349 356 355 349 347 346 343 339 339 341 342 342 343 344 341 337 333 328 325 321 317 313 313
12 15 7 348 338 347 352 350 349 341 334 327 318 320 321 326 335 348 357 358 352 349 351 357 352 349 346 343 342 340 339 339 340 339 338 335 332 329 326 324 321 318 316
10 12 3 354 349 355 1 353 351 342 328 325 310 308 305 300 307 345 349 349 355 354 352 354 358 355 350 345 344 341 340 340 339 338 337 335 332 330 327 323 319 317 316
6 10 7 1 357 357 360 352 337 349 331 319 313 311 301 291 296 333 335 345 351 355 358 357 352 350 352 350 348 345 343 342 340 336 334 332 330 327 325 323 320 317 315
5 9 4 2 2 359 350 342 329 339 350 347 335 320 312 299 310 323 335 353 352 354 3 4 356 352 346 352 349 348 344 344 344 342 338 334 331 328 325 323 321 317 315
4 3 7 357 351 343 357 1 356 343 342 8 347 324 323 320 327 318 328 338 348 356 357 354 352 352 345 341 342 345 343 342 341 340 338 336 333 328 324 323 321 319 316
8 1 357 355 353 351 347 342 349 358 329 331 3 342 320 295 313 302 304 339 351 340 331 336 354 344 342 341 333 341 343 341 339 338 337 334 332 331 329 324 322 319 316
7 2 358 358 357 352 352 349 2 338 341 335 321 320 279 268 288 304 306 327 331 323 317 328 330 332 337 338 340 343 343 341 339 337 335 334 332 330 328 326 324 321 317
10 7 2 2 1 358 357 358 358 357 351 332 321 312 306 311 270 273 293 307 312 294 295 289 292 318 333 337 331 335 337 337 336 333 332 331 330 328 326 324 324 323 321
357 4 1 0 355 355 352 343 341 340 328 315 307 326 320 293 289 278 282 297 298 292 288 273 283 311 317 326 327 333 332 332 331 330 329 329 327 325 325 323 322 321 322
348 353 355 352 351 350 347 343 341 339 322 316 297 298 298 292 297 285 283 295 296 294 271 255 271 292 323 326 321 330 327 328 325 325 325 324 323 322 322 322 321 321 320
333 343 353 353 353 351 348 341 337 334 336 313 323 318 312 313 319 307 299 300 304 298 281 273 275 266 316 313 317 327 322 321 319 320 321 321 320 320 320 320 320 320 319
336 351 356 356 357 356 352 344 343 342 333 321 315 315 309 307 310 308 311 302 295 300 297 295 305 312 314 307 315 317 311 311 315 315 317 317 317 318 318 318 318 317 316
345 350 353 353 356 353 350 346 341 343 347 340 332 331 324 321 318 318 309 300 289 283 286 298 302 308 313 314 315 310 302 310 309 311 313 314 316 316 317 317 316 316 316
357 356 353 355 359 355 352 350 346 346 346 343 346 347 345 341 332 326 318 311 302 293 286 294 299 308 307 309 312 310 305 302 304 308 310 312 313 314 315 315 315 315 315
1 1 4 4 360 358 354 353 349 354 350 347 349 348 344 342 339 330 330 325 316 308 297 300 306 310 307 309 309 309 312 310 305 307 310 309 311 315 315 314 314 313 313
3 8 10 6 359 352 350 351 350 349 344 343 347 345 341 343 335 331 331 327 320 316 304 298 302 306 304 311 313 310 307 303 306 308 306 306 310 313 311 312 313 312 310
7 7 5 0 356 347 343 345 352 351 352 356 355 351 347 342 331 329 330 329 328 325 318 308 306 309 310 314 315 317 315 313 308 308 304 309 310 310 309 309 311 310 309
6 3 5 3 357 346 345 353 355 359 357 355 355 352 348 347 344 341 335 334 329 323 321 318 315 316 319 326 324 319 310 312 303 297 305 305 305 300 304 304 306 306 308
6 6 6 359 352 342 344 352 358 1 354 353 349 346 343 348 348 349 346 340 335 327 322 317 313 315 317 320 318 316 314 317 312 319 315 303 301 297 298 296 303 308 310
4 5 1 0 352 344 351 353 355 358 355 349 340 339 340 341 338 339 343 343 340 336 333 324 314 314 314 317 316 314 313 309 299 305 310 298 302 297 299 301 306 306 311
357 352 349 353 347 340 347 349 354 359 352 347 341 338 335 334 334 339 340 337 333 332 329 327 314 310 311 314 312 309 306 302 295 294 302 293 304 303 306 301 302 308 314
347 343 343 352 342 334 342 346 350 348 346 341 337 340 335 328 332 340 342 334 329 328 333 330 326 323 325 328 329 325 321 318 311 309 309 292 303 310 302 295 302 314 319
339 339 337 346 341 333 337 344 346 345 340 338 337 340 337 333 335 339 340 332 324 326 330 328 329 330 330 328 333 330 316 311 310 305 320 321 310 322 309 299 310 314 314